�������l�o���
Date,Time,MP-1(��Sv/h),MP-2(��Sv/h),MP-3(��Sv/h),MP-4(��Sv/h),MP-5(��Sv/h),MP-6(��Sv/h),MP-7(��Sv/h),����,����(m/s),���J
2014/10/26,00:00,0.616,0.428,0.654,0.592,0.591,0.270,0.239,�쐼,3.3,��
2014/10/26,00:10,0.617,0.428,0.655,0.593,0.590,0.271,0.239,�쐼,2.8,��
2014/10/26,00:20,0.616,0.427,0.652,0.590,0.592,0.270,0.238,�쐼,2.9,��
2014/10/26,00:30,0.615,0.427,0.654,0.594,0.591,0.271,0.239,���쐼,3.5,��
2014/10/26,00:40,0.616,0.428,0.653,0.593,0.590,0.271,0.237,�쐼,4.3,��
2014/10/26,00:50,0.616,0.428,0.653,0.593,0.592,0.271,0.237,�쐼,5.4,��
2014/10/26,01:00,0.615,0.428,0.651,0.594,0.591,0.272,0.239,���쐼,4.9,��
2014/10/26,01:10,0.616,0.429,0.652,0.593,0.589,0.272,0.238,���쐼,5.8,��
2014/10/26,01:20,0.618,0.429,0.651,0.591,0.591,0.271,0.238,���쐼,5.1,��
2014/10/26,01:30,0.617,0.428,0.653,0.592,0.590,0.271,0.237,���쐼,4.4,��
2014/10/26,01:40,0.616,0.428,0.653,0.592,0.591,0.270,0.238,�쐼,6.3,��
2014/10/26,01:50,0.617,0.427,0.654,0.592,0.591,0.271,0.238,�쐼,7.8,��
2014/10/26,02:00,0.614,0.428,0.652,0.592,0.591,0.270,0.239,���쐼,6.2,��
2014/10/26,02:10,0.617,0.427,0.653,0.593,0.591,0.270,0.237,���쐼,5.8,��
2014/10/26,02:20,0.617,0.428,0.654,0.592,0.590,0.270,0.238,���쐼,5.0,��
2014/10/26,02:30,0.616,0.427,0.653,0.593,0.590,0.271,0.237,���쐼,3.9,��
2014/10/26,02:40,0.615,0.429,0.652,0.591,0.591,0.270,0.238,�쐼,2.9,��
2014/10/26,02:50,0.615,0.427,0.652,0.593,0.590,0.271,0.238,��쐼,1.1,��
2014/10/26,03:00,0.617,0.427,0.653,0.594,0.590,0.272,0.238,��,1.2,��
2014/10/26,03:10,0.616,0.428,0.653,0.593,0.592,0.272,0.237,�쐼,1.3,��
2014/10/26,03:20,0.617,0.427,0.654,0.592,0.592,0.271,0.238,��쐼,1.7,��
2014/10/26,03:30,0.616,0.429,0.652,0.591,0.590,0.270,0.238,��쐼,3.0,��
2014/10/26,03:40,0.617,0.427,0.654,0.592,0.589,0.271,0.238,��쐼,3.4,��
2014/10/26,03:50,0.617,0.428,0.654,0.594,0.592,0.271,0.238,��쐼,2.9,��
2014/10/26,04:00,0.617,0.429,0.653,0.593,0.591,0.271,0.237,��쐼,2.3,��
2014/10/26,04:10,0.617,0.428,0.651,0.592,0.591,0.271,0.238,�쓌,0.6,��
2014/10/26,04:20,0.617,0.428,0.653,0.592,0.592,0.271,0.237,��,0.6,��
2014/10/26,04:30,0.619,0.428,0.655,0.593,0.592,0.272,0.237,�쐼,1.4,��
2014/10/26,04:40,0.617,0.428,0.653,0.592,0.589,0.271,0.239,�쐼,0.5,��
2014/10/26,04:50,0.616,0.427,0.652,0.592,0.590,0.273,0.238,-,CALM,��
2014/10/26,05:00,0.617,0.427,0.654,0.591,0.590,0.271,0.238,-,CALM,��
2014/10/26,05:10,0.617,0.428,0.655,0.594,0.591,0.269,0.237,-,CALM,��
2014/10/26,05:20,0.616,0.428,0.655,0.593,0.590,0.270,0.238,���k��,1.0,��
2014/10/26,05:30,0.617,0.429,0.653,0.592,0.590,0.271,0.237,���쓌,0.8,��
2014/10/26,05:40,0.616,0.428,0.653,0.594,0.590,0.272,0.238,���쓌,0.9,��
2014/10/26,05:50,0.616,0.429,0.654,0.594,0.591,0.272,0.238,���쓌,0.9,��
2014/10/26,06:00,0.617,0.429,0.653,0.594,0.591,0.271,0.238,���k��,1.5,��
2014/10/26,06:10,0.617,0.430,0.653,0.593,0.590,0.271,0.238,-,CALM,��
2014/10/26,06:20,0.616,0.428,0.653,0.593,0.591,0.271,0.239,���k��,0.7,��
2014/10/26,06:30,0.616,0.429,0.654,0.593,0.591,0.270,0.237,��,0.5,��
2014/10/26,06:40,0.618,0.429,0.654,0.594,0.589,0.272,0.238,���k��,1.3,��
2014/10/26,06:50,0.614,0.428,0.654,0.593,0.590,0.271,0.238,���k��,0.6,��
2014/10/26,07:00,0.617,0.429,0.653,0.594,0.592,0.271,0.237,���k��,1.3,��
2014/10/26,07:10,0.618,0.428,0.653,0.595,0.591,0.272,0.239,���k��,1.2,��
2014/10/26,07:20,0.618,0.429,0.655,0.593,0.591,0.270,0.237,���k��,0.8,��
2014/10/26,07:30,0.618,0.428,0.655,0.594,0.590,0.271,0.238,��,0.7,��
2014/10/26,07:40,0.617,0.428,0.653,0.594,0.592,0.271,0.238,���k��,1.2,��
2014/10/26,07:50,0.619,0.428,0.655,0.595,0.592,0.272,0.237,�쓌,1.2,��
2014/10/26,08:00,0.618,0.428,0.654,0.594,0.591,0.271,0.238,��,0.6,��
2014/10/26,08:10,0.619,0.429,0.654,0.596,0.592,0.272,0.237,���k��,1.2,��
2014/10/26,08:20,0.618,0.429,0.654,0.596,0.592,0.270,0.238,���k��,1.6,��
2014/10/26,08:30,0.617,0.429,0.655,0.595,0.591,0.271,0.238,���k��,2.2,��
2014/10/26,08:40,0.617,0.430,0.653,0.597,0.592,0.272,0.239,���k��,2.8,��
2014/10/26,08:50,0.619,0.431,0.653,0.597,0.593,0.272,0.237,�k��,3.3,��
2014/10/26,09:00,0.618,0.431,0.654,0.594,0.592,0.270,0.239,�k��,1.9,��
2014/10/26,09:10,0.617,0.429,0.655,0.598,0.591,0.271,0.238,�k��,1.9,��
2014/10/26,09:20,0.618,0.431,0.656,0.599,0.593,0.270,0.237,�k�k��,1.0,��
2014/10/26,09:30,0.619,0.430,0.654,0.602,0.593,0.269,0.239,�k��,0.5,��
2014/10/26,09:40,0.620,0.432,0.654,0.603,0.594,0.271,0.239,���k��,1.4,��
2014/10/26,09:50,0.621,0.431,0.656,0.605,0.593,0.270,0.238,�k��,1.1,��
2014/10/26,10:00,0.622,0.434,0.654,0.605,0.593,0.271,0.237,�k��,1.3,��
2014/10/26,10:10,0.622,0.434,0.655,0.606,0.595,0.271,0.239,���k��,1.8,��
2014/10/26,10:20,0.623,0.433,0.655,0.607,0.596,0.272,0.240,�k��,1.7,��
2014/10/26,10:30,0.621,0.432,0.655,0.611,0.596,0.271,0.238,���k��,1.1,��
2014/10/26,10:40,0.622,0.433,0.655,0.610,0.596,0.271,0.241,��,1.4,��
2014/10/26,10:50,0.623,0.435,0.655,0.610,0.598,0.272,0.240,��,1.2,��
2014/10/26,11:00,0.624,0.436,0.656,0.610,0.598,0.271,0.237,�k��,2.1,��
2014/10/26,11:10,0.627,0.435,0.658,0.611,0.600,0.273,0.239,���k��,1.8,��
2014/10/26,11:20,0.627,0.434,0.656,0.612,0.599,0.271,0.239,��,1.3,��
2014/10/26,11:30,0.628,0.436,0.658,0.614,0.601,0.271,0.238,���k��,1.0,��
2014/10/26,11:40,0.627,0.436,0.657,0.613,0.597,0.272,0.238,��,0.7,��
2014/10/26,11:50,0.627,0.436,0.658,0.612,0.600,0.272,0.240,���k��,1.5,��
2014/10/26,12:00,0.626,0.437,0.660,0.612,0.599,0.272,0.238,�쓌,1.0,��
2014/10/26,12:10,0.630,0.437,0.657,0.611,0.598,0.272,0.238,��,1.4,��
2014/10/26,12:20,0.630,0.436,0.661,0.610,0.598,0.273,0.239,���쓌,1.4,��
2014/10/26,12:30,0.627,0.433,0.660,0.611,0.596,0.272,0.240,�쓌,1.5,��
2014/10/26,12:40,0.628,0.436,0.661,0.611,0.598,0.272,0.238,��쓌,2.7,��
2014/10/26,12:50,0.628,0.434,0.661,0.611,0.599,0.271,0.237,��쓌,3.1,��
2014/10/26,13:00,0.625,0.435,0.664,0.612,0.597,0.272,0.238,��쓌,4.4,��
2014/10/26,13:10,0.627,0.434,0.663,0.611,0.598,0.274,0.239,��,8.9,��
2014/10/26,13:20,0.626,0.434,0.663,0.612,0.597,0.271,0.238,��,11.0,��
2014/10/26,13:30,0.626,0.434,0.662,0.612,0.595,0.271,0.238,��,9.3,��
2014/10/26,13:40,0.626,0.433,0.662,0.607,0.597,0.272,0.238,��,10.8,��
2014/10/26,13:50,0.627,0.433,0.661,0.609,0.594,0.272,0.240,��,9.6,��
2014/10/26,14:00,0.626,0.432,0.662,0.609,0.596,0.270,0.237,��,11.0,��
2014/10/26,14:10,0.628,0.432,0.658,0.609,0.595,0.271,0.239,��,8.9,��
2014/10/26,14:20,0.625,0.434,0.657,0.608,0.594,0.272,0.239,��,8.7,��
2014/10/26,14:30,0.625,0.433,0.660,0.608,0.594,0.273,0.238,��,7.2,��
2014/10/26,14:40,0.623,0.433,0.659,0.608,0.593,0.272,0.239,��,6.4,��
2014/10/26,14:50,0.626,0.434,0.658,0.609,0.594,0.272,0.239,��쐼,6.1,��
2014/10/26,15:00,0.626,0.433,0.658,0.608,0.593,0.272,0.237,��,4.7,��
2014/10/26,15:10,0.624,0.432,0.659,0.610,0.594,0.273,0.239,��,5.0,��
2014/10/26,15:20,0.624,0.433,0.657,0.606,0.593,0.271,0.240,��,5.0,��
2014/10/26,15:30,0.625,0.433,0.659,0.610,0.594,0.270,0.236,��쐼,5.9,��
2014/10/26,15:40,0.626,0.432,0.658,0.610,0.593,0.272,0.239,��쐼,8.2,��
2014/10/26,15:50,0.623,0.433,0.659,0.610,0.593,0.272,0.240,��,9.5,��
2014/10/26,16:00,0.625,0.434,0.658,0.610,0.593,0.270,0.239,��,6.7,��
2014/10/26,16:10,0.623,0.433,0.659,0.610,0.594,0.272,0.240,��,8.6,��
2014/10/26,16:20,0.624,0.433,0.658,0.605,0.594,0.272,0.240,��쐼,8.3,��
2014/10/26,16:30,0.625,0.433,0.660,0.606,0.594,0.272,0.238,��쐼,8.5,��
2014/10/26,16:40,0.625,0.434,0.657,0.607,0.593,0.271,0.240,��쐼,7.7,��
2014/10/26,16:50,0.623,0.433,0.657,0.606,0.593,0.273,0.239,��쐼,7.0,��
2014/10/26,17:00,0.621,0.433,0.658,0.606,0.595,0.271,0.240,��쐼,7.5,��
2014/10/26,17:10,0.623,0.433,0.659,0.604,0.593,0.272,0.238,��쐼,8.4,��
2014/10/26,17:20,0.622,0.434,0.658,0.603,0.592,0.272,0.239,��쐼,8.8,��
2014/10/26,17:30,0.620,0.433,0.656,0.606,0.593,0.270,0.239,��쐼,9.8,��
2014/10/26,17:40,0.619,0.431,0.657,0.603,0.594,0.271,0.239,��쐼,9.3,��
2014/10/26,17:50,0.619,0.431,0.657,0.604,0.594,0.271,0.239,��쐼,8.9,��
2014/10/26,18:00,0.620,0.431,0.658,0.601,0.592,0.273,0.238,��쐼,8.2,��
2014/10/26,18:10,0.618,0.429,0.656,0.601,0.593,0.270,0.240,��쐼,9.4,��
2014/10/26,18:20,0.617,0.430,0.656,0.603,0.593,0.273,0.238,��쐼,10.2,��
2014/10/26,18:30,0.617,0.430,0.654,0.600,0.591,0.274,0.239,��쐼,9.5,��
2014/10/26,18:40,0.619,0.429,0.656,0.600,0.593,0.271,0.238,��쐼,9.5,�L
2014/10/26,18:50,0.617,0.431,0.657,0.601,0.593,0.272,0.240,��쐼,11.2,�L
2014/10/26,19:00,0.617,0.430,0.656,0.600,0.594,0.270,0.239,��쐼,10.4,�L
2014/10/26,19:10,0.616,0.431,0.655,0.601,0.590,0.271,0.240,��쐼,7.8,�L
2014/10/26,19:20,0.617,0.430,0.655,0.598,0.593,0.272,0.240,��쐼,9.8,��
2014/10/26,19:30,0.617,0.430,0.656,0.596,0.591,0.272,0.239,��쐼,11.4,��
2014/10/26,19:40,0.617,0.429,0.656,0.598,0.592,0.272,0.239,��쐼,10.0,��
2014/10/26,19:50,0.616,0.429,0.654,0.598,0.591,0.272,0.238,��쐼,9.8,��
2014/10/26,20:00,0.616,0.429,0.655,0.599,0.591,0.272,0.240,��쐼,9.8,��
2014/10/26,20:10,0.616,0.430,0.654,0.599,0.591,0.272,0.238,��쐼,9.2,��
2014/10/26,20:20,0.616,0.431,0.654,0.599,0.591,0.272,0.240,��쐼,10.5,��
2014/10/26,20:30,0.616,0.428,0.655,0.594,0.591,0.272,0.240,��쐼,10.7,��
2014/10/26,20:40,0.616,0.429,0.656,0.597,0.590,0.271,0.240,��쐼,10.7,��
2014/10/26,20:50,0.616,0.430,0.656,0.594,0.590,0.271,0.240,��쐼,11.3,��
2014/10/26,21:00,0.614,0.431,0.655,0.596,0.590,0.272,0.240,��쐼,11.1,��
2014/10/26,21:10,0.616,0.433,0.656,0.596,0.591,0.273,0.240,��쐼,9.5,��
2014/10/26,21:20,0.618,0.431,0.654,0.597,0.590,0.272,0.239,��쐼,9.8,��
2014/10/26,21:30,0.616,0.430,0.653,0.597,0.592,0.273,0.239,��쐼,10.4,��
2014/10/26,21:40,0.618,0.431,0.657,0.598,0.591,0.271,0.239,��쐼,9.5,��
2014/10/26,21:50,0.618,0.430,0.654,0.598,0.591,0.271,0.240,��쐼,8.1,��
2014/10/26,22:00,0.617,0.431,0.655,0.596,0.590,0.272,0.238,��쐼,8.6,��
2014/10/26,22:10,0.619,0.429,0.654,0.597,0.592,0.271,0.240,��쐼,8.8,��
2014/10/26,22:20,0.617,0.430,0.655,0.596,0.592,0.274,0.239,��쐼,7.8,��
2014/10/26,22:30,0.617,0.431,0.656,0.594,0.592,0.271,0.240,��쐼,7.4,��
2014/10/26,22:40,0.616,0.429,0.655,0.596,0.589,0.273,0.240,��쐼,7.4,��
2014/10/26,22:50,0.616,0.429,0.654,0.595,0.591,0.274,0.238,��쐼,7.1,��
2014/10/26,23:00,0.618,0.430,0.655,0.594,0.592,0.272,0.240,��쐼,6.4,��
2014/10/26,23:10,0.616,0.431,0.655,0.595,0.592,0.272,0.239,��쐼,6.3,��
2014/10/26,23:20,0.615,0.430,0.655,0.595,0.590,0.271,0.241,��쐼,6.3,��
2014/10/26,23:30,0.616,0.428,0.656,0.596,0.592,0.274,0.239,��쐼,5.6,�L
2014/10/26,23:40,0.617,0.430,0.656,0.596,0.593,0.272,0.241,��쐼,4.5,��
2014/10/26,23:50,0.615,0.430,0.657,0.597,0.591,0.273,0.239,��쐼,6.0,�L
